K9UO Weather Reports


time (UTC)temp
F
wind
direction
speed
knots
gust
knots
rain 1hr
in
rain 24hr
in
rain mn
in
humidity
%
barometer
mb
20260903101003 77 222 0.9 2.6 0.00 0.00 0.00 78 1016.3
20260903100507 77 206 0.9 2.6 0.00 0.00 0.00 78 1016.3
20260903100016 77 207 0.9 1.7 0.00 0.00 0.00 78 1016.2
20260903095509 77 203 0.9 2.6 0.00 0.00 0.00 78 1016.2
20260903095012 77 214 0.9 3.5 0.00 0.00 0.00 77 1016.2
20260903094544 78 215 0.9 3.5 0.00 0.00 0.00 77 1016.2
20260903094011 78 217 0.9 2.6 0.00 0.00 0.00 77 1016.2
20260903093511 78 217 0.9 1.7 0.00 0.00 0.00 77 1016.1
20260903093033 78 219 0.9 1.7 0.00 0.00 0.00 76 1016.2
20260903092504 78 240 0.9 2.6 0.00 0.00 0.00 76 1016.2
20260903092005 78 211 0.9 2.6 0.00 0.00 0.00 76 1016.2
20260903091510 78 216 0.9 4.3 0.00 0.00 0.00 76 1016.2
20260903091003 78 204 0.9 4.3 0.00 0.00 0.00 76 1016.3
20260903090503 78 206 2.6 4.3 0.00 0.00 0.00 76 1016.2
20260903090014 79 226 0.9 3.5 0.00 0.00 0.00 76 1016.1
20260903085508 79 217 1.7 3.5 0.00 0.00 0.00 76 1016.1
20260903085007 79 208 1.7 5.2 0.00 0.00 0.00 76 1016.1
20260903084523 79 240 1.7 5.2 0.00 0.00 0.00 76 1016.1
20260903084010 79 223 2.6 5.2 0.00 0.00 0.00 76 1016.1
20260903083513 79 205 1.7 6.1 0.00 0.00 0.00 76 1016.1
20260903083026 79 209 2.6 6.1 0.00 0.00 0.00 76 1016.1
20260903082512 79 207 2.6 6.1 0.00 0.00 0.00 76 1016.1
20260903082016 79 236 2.6 6.1 0.00 0.00 0.00 76 1016.1
20260903081504 79 210 2.6 4.3 0.00 0.00 0.00 76 1016.1
20260903081002 79 210 1.7 6.1 0.00 0.00 0.00 76 1016.1
20260903080502 79 221 1.7 7.0 0.00 0.00 0.00 75 1016.2
20260903080011 79 202 3.5 7.0 0.00 0.00 0.00 75 1016.2
20260903075508 79 238 2.6 5.2 0.00 0.00 0.00 76 1016.1
20260903075008 79 226 2.6 7.0 0.00 0.00 0.00 75 1016.1
20260903074518 79 209 1.7 7.0 0.00 0.00 0.00 75 1016.0
20260903074012 79 201 2.6 5.2 0.00 0.00 0.00 76 1016.0
20260903073513 79 188 1.7 6.1 0.00 0.00 0.00 76 1016.1
20260903073027 79 204 2.6 6.1 0.00 0.00 0.00 76 1016.0
20260903072517 79 222 3.5 7.0 0.00 0.00 0.00 76 1016.0
20260903072022 79 196 3.5 7.0 0.00 0.00 0.00 76 1016.0
20260903071534 79 196 2.6 6.1 0.00 0.00 0.00 76 1016.0
20260903071016 79 221 4.3 6.1 0.00 0.00 0.00 77 1016.0
20260903070505 79 202 2.6 5.2 0.00 0.00 0.00 77 1016.1
20260903070007 79 188 2.6 4.3 0.00 0.00 0.00 78 1016.2
20260903065507 79 210 1.7 4.3 0.00 0.00 0.00 78 1016.2
20260903065007 79 200 1.7 3.5 0.00 0.00 0.00 78 1016.2
20260903064516 79 207 2.6 3.5 0.00 0.00 0.00 78 1016.2
20260903064010 78 211 1.7 4.3 0.00 0.00 0.00 79 1016.2
20260903063512 78 183 1.7 4.3 0.00 0.00 0.00 79 1016.3
20260903063023 78 219 1.7 3.5 0.00 0.00 0.00 79 1016.3
20260903062514 78 201 1.7 3.5 0.00 0.00 0.00 79 1016.3
20260903062013 78 201 1.7 3.5 0.00 0.00 0.00 79 1016.3
20260903061537 78 200 1.7 3.5 0.00 0.00 0.00 79 1016.3
20260903061016 79 225 1.7 3.5 0.00 0.00 0.00 79 1016.3
20260903060515 79 204 1.7 4.3 0.00 0.00 0.00 79 1016.3
20260903060030 79 200 0.9 4.3 0.00 0.00 0.00 79 1016.3
20260903055507 79 205 1.7 4.3 0.00 0.00 0.00 79 1016.3
20260903055006 79 205 1.7 5.2 0.00 0.00 0.00 79 1016.3
20260903054536 79 201 1.7 5.2 0.00 0.00 0.00 79 1016.2
20260903054010 79 203 1.7 4.3 0.00 0.00 0.00 79 1016.3
20260903053509 79 203 1.7 4.3 0.00 0.00 0.00 79 1016.2
20260903053030 79 207 1.7 3.5 0.00 0.00 0.00 79 1016.1
20260903052511 79 184 1.7 3.5 0.00 0.00 0.00 79 1016.1
20260903052011 79 193 1.7 4.3 0.00 0.00 0.00 79 1016.0
20260903051506 79 202 2.6 4.3 0.00 0.00 0.00 79 1016.0
20260903051006 79 207 1.7 3.5 0.00 0.00 0.00 80 1016.0
20260903050505 79 209 1.7 4.3 0.00 0.00 0.00 79 1015.9
20260903050009 79 213 1.7 4.3 0.00 0.00 0.00 79 1015.9
20260903045505 79 213 1.7 3.5 0.00 0.00 0.00 80 1015.8
20260903045004 79 219 1.7 3.5 0.00 0.00 0.00 80 1015.8
20260903044512 79 205 1.7 3.5 0.00 0.00 0.00 80 1015.8
20260903044007 80 194 1.7 3.5 0.00 0.00 0.00 80 1015.7
20260903043507 80 213 1.7 3.5 0.00 0.00 0.00 79 1015.7
20260903043016 80 204 1.7 4.3 0.00 0.00 0.00 79 1015.7
20260903042511 80 207 0.9 4.3 0.00 0.00 0.00 79 1015.6
20260903042015 80 215 1.7 4.3 0.00 0.00 0.00 79 1015.7
20260903041528 80 203 0.9 4.3 0.00 0.00 0.00 79 1015.8
20260903041014 80 215 1.7 3.5 0.00 0.00 0.00 79 1015.7
20260903040503 80 208 1.7 2.6 0.00 0.00 0.00 79 1015.7
20260903040004 80 210 1.7 2.6 0.00 0.00 0.00 79 1015.7
20260903035505 80 208 0.9 3.5 0.00 0.00 0.00 79 1015.8
20260903035004 80 210 0.9 3.5 0.00 0.00 0.00 78 1015.8
20260903034511 80 213 1.7 3.5 0.00 0.00 0.00 78 1015.8
20260903034007 80 213 1.7 3.5 0.00 0.00 0.00 78 1015.9
20260903033507 80 217 0.9 2.6 0.00 0.00 0.00 78 1015.9
20260903033017 80 202 1.7 2.6 0.00 0.00 0.00 78 1015.9
20260903032510 80 217 1.7 3.5 0.00 0.00 0.00 78 1015.9
20260903032009 81 223 1.7 3.5 0.00 0.00 0.00 78 1016.0
20260903031523 81 215 1.7 4.3 0.00 0.00 0.00 78 1016.1
20260903031014 81 198 1.7 4.3 0.00 0.00 0.00 78 1016.1
20260903030516 81 155 1.7 3.5 0.00 0.00 0.00 78 1016.1
20260903030039 81 200 1.7 2.6 0.00 0.00 0.00 78 1016.1
20260903025515 81 202 1.7 4.3 0.00 0.00 0.00 78 1016.1
20260903025006 81 216 1.7 4.3 0.00 0.00 0.00 78 1016.1
20260903024510 81 210 0.9 3.5 0.00 0.00 0.00 78 1016.2
20260903024003 81 213 0.9 3.5 0.00 0.00 0.00 77 1016.2
20260903023510 81 212 1.7 2.6 0.00 0.00 0.00 77 1016.2
20260903023015 81 207 1.7 2.6 0.00 0.00 0.00 77 1016.2
20260903022507 82 202 1.7 3.5 0.00 0.00 0.00 77 1016.2
20260903022010 82 211 1.7 4.3 0.00 0.00 0.00 77 1016.2
20260903021525 82 217 1.7 4.3 0.00 0.00 0.00 77 1016.3
20260903021013 81 213 1.7 4.3 0.00 0.00 0.00 77 1016.3
20260903020511 81 199 1.7 3.5 0.00 0.00 0.00 77 1016.2
20260903020031 81 223 1.7 3.5 0.00 0.00 0.00 77 1016.2
20260903015514 81 209 0.9 2.6 0.00 0.00 0.00 77 1016.2
20260903015016 82 202 0.9 2.6 0.00 0.00 0.00 78 1016.2
20260903014533 82 208 0.9 2.6 0.00 0.00 0.00 77 1016.1
20260903014004 82 207 0.9 3.5 0.00 0.00 0.00 77 1016.1
20260903013504 82 199 0.9 3.5 0.00 0.00 0.00 77 1016.0
20260903013011 82 203 0.9 2.6 0.00 0.00 0.00 77 1015.9
20260903012503 82 211 0.9 2.6 0.00 0.00 0.00 77 1016.0
20260903012009 82 213 0.9 2.6 0.00 0.00 0.00 77 1015.9
20260903011532 82 202 0.9 1.7 0.00 0.00 0.00 78 1015.9
20260903011011 82 209 0.0 1.7 0.00 0.00 0.00 78 1015.9
20260903010511 82 209 0.0 1.7 0.00 0.00 0.00 78 1015.8
20260903010024 82 209 0.9 1.7 0.00 0.00 0.00 77 1015.8
20260903005511 82 209 0.0 1.7 0.00 0.00 0.00 77 1015.8
20260903005016 82 209 0.0 1.7 0.00 0.00 0.00 77 1015.8
20260903004533 83 209 0.0 1.7 0.00 0.00 0.00 77 1015.7
20260903004016 83 209 0.0 1.7 0.00 0.00 0.00 76 1015.6
20260903003516 83 209 0.0 1.7 0.00 0.00 0.00 76 1015.6
20260903003008 84 209 0.0 1.7 0.00 0.00 0.00 75 1015.6
20260903002508 84 209 0.0 1.7 0.00 0.00 0.00 75 1015.5
20260903002007 84 209 0.0 1.7 0.00 0.00 0.00 73 1015.6
20260903001515 85 209 0.0 1.7 0.00 0.00 0.00 73 1015.6
20260903001009 85 209 0.0 1.7 0.00 0.00 0.00 72 1015.6
20260903000507 86 209 0.0 1.7 0.00 0.00 0.00 72 1015.5
20260903000020 86 209 0.0 1.7 0.00 0.00 0.00 71 1015.5
20260902235513 86 201 0.0 1.7 0.00 0.00 0.00 70 1015.5
20260902235015 87 205 0.0 1.7 0.00 0.00 0.00 69 1015.5
20260902234529 87 196 0.9 2.6 0.00 0.00 0.00 69 1015.5
20260902234014 87 212 0.9 2.6 0.00 0.00 0.00 68 1015.5
20260902233513 88 204 0.9 2.6 0.00 0.00 0.00 68 1015.5
20260902233037 88 209 1.7 3.5 0.00 0.00 0.00 67 1015.5
20260902232516 88 199 1.7 4.3 0.00 0.00 0.00 67 1015.5
20260902232007 89 223 2.6 4.3 0.00 0.00 0.00 65 1015.4
20260902231516 89 200 1.7 4.3 0.00 0.00 0.00 65 1015.4
20260902231007 90 232 2.6 4.3 0.00 0.00 0.00 65 1015.4
20260902230508 90 223 2.6 4.3 0.00 0.00 0.00 65 1015.4
20260902230021 90 200 1.7 4.3 0.00 0.00 0.00 64 1015.4
20260902225511 90 200 1.7 5.2 0.00 0.00 0.00 64 1015.4
20260902225013 91 208 1.7 5.2 0.00 0.00 0.00 63 1015.4
20260902224525 91 204 2.6 6.1 0.00 0.00 0.00 63 1015.4
20260902224018 91 200 2.6 7.0 0.00 0.00 0.00 63 1015.4
20260902223515 91 202 1.7 7.0 0.00 0.00 0.00 62 1015.4
20260902223030 91 208 2.6 7.0 0.00 0.00 0.00 61 1015.4
20260902222515 91 221 2.6 6.1 0.00 0.00 0.00 62 1015.4
20260902222015 92 224 2.6 6.1 0.00 0.00 0.00 62 1015.4
20260902221534 92 214 2.6 7.0 0.00 0.00 0.00 61 1015.4
20260902221006 92 183 3.5 7.0 0.00 0.00 0.00 61 1015.3
20260902220506 92 160 1.7 7.0 0.00 0.00 0.00 61 1015.4
20260902220014 92 217 3.5 7.0 0.00 0.00 0.00 61 1015.4
20260902215507 92 193 4.3 7.0 0.00 0.00 0.00 60 1015.4
20260902215009 92 221 3.5 7.0 0.00 0.00 0.00 60 1015.4
20260902214524 92 200 4.3 7.8 0.00 0.00 0.00 60 1015.3
20260902214011 92 188 2.6 7.8 0.00 0.00 0.00 60 1015.4
20260902213514 92 215 3.5 7.8 0.00 0.00 0.00 59 1015.5
20260902213030 93 229 2.6 8.7 0.00 0.00 0.00 59 1015.5
20260902212514 93 207 2.6 8.7 0.00 0.00 0.00 59 1015.5
20260902212014 93 194 3.5 9.6 0.00 0.00 0.00 59 1015.4
20260902211533 93 203 3.5 9.6 0.00 0.00 0.00 59 1015.4
20260902211016 93 218 4.3 7.8 0.00 0.00 0.00 57 1015.5
20260902210517 93 136 2.6 6.1 0.00 0.00 0.00 59 1015.5
20260902210012 93 177 2.6 9.6 0.00 0.00 0.00 61 1015.5
20260902205507 93 187 4.3 9.6 0.00 0.00 0.00 57 1015.5
20260902205008 93 211 3.5 7.8 0.00 0.00 0.00 59 1015.6
20260902204536 93 170 2.6 8.7 0.00 0.00 0.00 60 1015.6
20260902204013 93 206 3.5 8.7 0.00 0.00 0.00 58 1015.7
20260902203510 93 204 3.5 7.0 0.00 0.00 0.00 58 1015.7
20260902203027 93 180 2.6 7.8 0.00 0.00 0.00 59 1015.8
20260902202513 93 200 3.5 10.4 0.00 0.00 0.00 58 1015.9
20260902202015 93 187 3.5 10.4 0.00 0.00 0.00 58 1016.0
20260902201533 93 196 3.5 9.6 0.00 0.00 0.00 59 1016.1
20260902201016 93 185 3.5 7.8 0.00 0.00 0.00 59 1016.1
20260902200519 93 201 4.3 7.8 0.00 0.00 0.00 57 1016.2
20260902200031 93 171 2.6 7.0 0.00 0.00 0.00 57 1016.3
20260902195519 93 222 4.3 7.8 0.00 0.00 0.00 58 1016.3
20260902195007 93 214 3.5 7.8 0.00 0.00 0.00 58 1016.3
20260902194518 93 211 2.6 7.8 0.00 0.00 0.00 56 1016.3
20260902194014 93 176 2.6 7.8 0.00 0.00 0.00 57 1016.3
20260902193512 93 206 4.3 7.8 0.00 0.00 0.00 58 1016.4
20260902193026 93 217 2.6 7.8 0.00 0.00 0.00 60 1016.4
20260902192513 93 240 3.5 9.6 0.00 0.00 0.00 57 1016.5
20260902192015 93 216 2.6 9.6 0.00 0.00 0.00 58 1016.5
20260902191532 93 167 2.6 6.1 0.00 0.00 0.00 59 1016.5
20260902191014 92 240 3.5 9.6 0.00 0.00 0.00 57 1016.6
20260902190517 92 246 4.3 9.6 0.00 0.00 0.00 58 1016.8
20260902190035 92 175 3.5 9.6 0.00 0.00 0.00 60 1016.8
20260902185519 92 174 1.7 7.8 0.00 0.00 0.00 59 1016.9
20260902185016 92 206 2.6 7.0 0.00 0.00 0.00 58 1016.8
20260902184536 92 209 1.7 7.8 0.00 0.00 0.00 59 1016.9
20260902184007 92 168 2.6 10.4 0.00 0.00 0.00 57 1016.8
20260902183508 92 202 3.5 10.4 0.00 0.00 0.00 58 1016.8
20260902183031 92 182 3.5 6.1 0.00 0.00 0.00 58 1017.0
20260902182511 92 234 3.5 7.8 0.00 0.00 0.00 58 1017.1
20260902182012 92 203 3.5 7.8 0.00 0.00 0.00 61 1017.2
20260902181528 92 203 2.6 8.7 0.00 0.00 0.00 59 1017.2
20260902181016 92 233 1.7 8.7 0.00 0.00 0.00 60 1017.1
20260902180514 92 205 2.6 7.0 0.00 0.00 0.00 60 1017.1
20260902180030 92 236 2.6 7.0 0.00 0.00 0.00 58 1017.2
20260902175517 91 211 2.6 7.8 0.00 0.00 0.00 60 1017.2
20260902175016 91 196 2.6 7.8 0.00 0.00 0.00 59 1017.3
20260902174534 91 194 3.5 7.0 0.00 0.00 0.00 60 1017.3
20260902174008 91 245 1.7 6.1 0.00 0.00 0.00 57 1017.4
20260902173508 91 187 2.6 7.8 0.00 0.00 0.00 58 1017.5
20260902173019 91 213 3.5 7.8 0.00 0.00 0.00 58 1017.6
20260902172511 91 217 3.5 6.1 0.00 0.00 0.00 59 1017.6
20260902172010 91 176 1.7 6.1 0.00 0.00 0.00 60 1017.6
20260902171502 91 195 1.7 6.1 0.00 0.00 0.00 61 1017.7
20260902171004 91 228 3.5 6.1 0.00 0.00 0.00 59 1017.8
20260902170503 91 257 2.6 6.1 0.00 0.00 0.00 61 1017.8
20260902170010 91 186 1.7 5.2 0.00 0.00 0.00 58 1017.8
20260902165504 90 209 1.7 5.2 0.00 0.00 0.00 62 1017.8
20260902165007 90 242 2.6 4.3 0.00 0.00 0.00 58 1017.8
20260902164517 90 263 1.7 6.1 0.00 0.00 0.00 62 1017.8
20260902164005 90 242 2.6 7.8 0.00 0.00 0.00 62 1017.9
20260902163508 90 242 2.6 7.8 0.00 0.00 0.00 63 1017.9
20260902163018 90 225 1.7 5.2 0.00 0.00 0.00 63 1017.9
20260902162508 89 279 1.7 5.2 0.00 0.00 0.00 60 1018.0
20260902162012 89 198 1.7 5.2 0.00 0.00 0.00 63 1018.0
20260902161524 89 198 2.6 6.1 0.00 0.00 0.00 62 1018.0
20260902161015 89 269 1.7 6.1 0.00 0.00 0.00 66 1018.0
20260902160503 88 205 1.7 7.0 0.00 0.00 0.00 62 1018.0
20260902160005 88 167 2.6 7.8 0.00 0.00 0.00 64 1018.0
20260902155503 88 173 2.6 7.8 0.00 0.00 0.00 65 1018.1
20260902155003 88 204 2.6 7.0 0.00 0.00 0.00 65 1018.0
20260902154507 88 211 2.6 7.8 0.00 0.00 0.00 64 1018.0
20260902154007 88 215 2.6 7.8 0.00 0.00 0.00 67 1018.1
20260902153507 87 252 3.5 7.0 0.00 0.00 0.00 66 1018.0
20260902153018 87 294 2.6 6.1 0.00 0.00 0.00 67 1018.0
20260902152507 87 284 3.5 6.1 0.00 0.00 0.00 66 1018.0
20260902152008 86 206 1.7 5.2 0.00 0.00 0.00 69 1017.9
20260902151523 86 229 1.7 5.2 0.00 0.00 0.00 68 1017.9
20260902151011 86 267 1.7 7.0 0.00 0.00 0.00 68 1017.9
20260902150513 86 231 2.6 7.0 0.00 0.00 0.00 70 1017.9
20260902150027 86 195 1.7 6.1 0.00 0.00 0.00 70 1017.9
20260902145503 85 217 1.7 6.1 0.00 0.00 0.00 68 1018.0
20260902145003 85 196 2.6 5.2 0.00 0.00 0.00 70 1018.0
20260902144507 85 344 1.7 6.1 0.00 0.00 0.00 69 1017.9
20260902144005 85 239 2.6 6.1 0.00 0.00 0.00 69 1018.0
20260902143504 85 243 1.7 6.1 0.00 0.00 0.00 71 1017.9
20260902143012 84 217 1.7 6.1 0.00 0.00 0.00 70 1018.0
20260902142508 84 192 2.6 6.1 0.00 0.00 0.00 70 1018.0
20260902142011 84 238 2.6 6.1 0.00 0.00 0.00 70 1018.1
20260902141524 84 213 1.7 7.0 0.00 0.00 0.00 71 1018.0
20260902141012 84 240 3.5 7.0 0.00 0.00 0.00 70 1018.1
20260902140511 84 250 2.6 6.1 0.00 0.00 0.00 70 1018.2
20260902140034 84 184 1.7 5.2 0.00 0.00 0.00 71 1018.2
20260902135512 83 231 2.6 4.3 0.00 0.00 0.00 70 1018.2
20260902135015 83 221 1.7 5.2 0.00 0.00 0.00 71 1018.2
20260902134507 83 255 1.7 5.2 0.00 0.00 0.00 71 1018.3
20260902134003 83 182 2.6 5.2 0.00 0.00 0.00 71 1018.2
20260902133503 82 248 1.7 4.3 0.00 0.00 0.00 71 1018.1
20260902133012 82 215 1.7 6.1 0.00 0.00 0.00 72 1018.2
20260902132509 82 223 2.6 5.2 0.00 0.00 0.00 73 1018.2
20260902132006 82 248 2.6 6.1 0.00 0.00 0.00 73 1018.1
20260902131517 81 208 2.6 7.0 0.00 0.00 0.00 73 1018.2
20260902131007 81 261 2.6 7.0 0.00 0.00 0.00 73 1018.1
20260902130512 80 273 0.9 4.3 0.00 0.00 0.00 77 1018.1
20260902130025 79 352 1.7 3.5 0.00 0.00 0.00 76 1018.1
20260902125513 79 295 1.7 4.3 0.00 0.00 0.00 78 1018.2
20260902125013 78 232 0.9 4.3 0.00 0.00 0.00 78 1018.1
20260902124533 78 231 0.9 3.5 0.00 0.00 0.00 78 1018.2
20260902124016 77 219 1.7 3.5 0.00 0.00 0.00 81 1018.2
20260902123504 77 261 1.7 3.5 0.00 0.00 0.00 81 1018.2
20260902123008 76 227 0.9 3.5 0.00 0.00 0.00 82 1018.2
20260902122505 76 195 1.7 3.5 0.00 0.00 0.00 82 1018.3
20260902122007 75 198 0.9 3.5 0.00 0.00 0.00 83 1018.3
20260902121512 75 232 0.9 3.5 0.00 0.00 0.00 84 1018.3
20260902121007 75 221 0.9 2.6 0.00 0.00 0.00 84 1018.3
20260902120508 75 220 0.9 1.7 0.00 0.00 0.00 84 1018.3
20260902120022 74 251 0.9 1.7 0.00 0.00 0.00 84 1018.3
20260902115511 74 205 0.0 1.7 0.00 0.00 0.00 84 1018.2
20260902115013 74 200 0.9 2.6 0.00 0.00 0.00 84 1018.1
20260902114529 74 206 0.9 2.6 0.00 0.00 0.00 84 1018.0
20260902114016 74 209 0.9 1.7 0.00 0.00 0.00 84 1017.9
20260902113513 74 206 0.9 1.7 0.00 0.00 0.00 84 1017.9
20260902113034 74 206 0.9 2.6 0.00 0.00 0.00 84 1017.8
20260902112503 74 199 0.0 2.6 0.00 0.00 0.00 84 1017.8
20260902112006 74 210 0.0 1.7 0.00 0.00 0.00 84 1017.8
20260902111511 74 210 0.9 1.7 0.00 0.00 0.00 84 1017.8
20260902111008 74 210 0.9 1.7 0.00 0.00 0.00 84 1017.7
20260902110507 74 210 0.0 1.7 0.00 0.00 0.00 84 1017.6
20260902110019 74 208 0.9 1.7 0.00 0.00 0.00 84 1017.6
20260902105510 74 197 0.0 1.7 0.00 0.00 0.00 84 1017.6
20260902105013 74 197 0.9 1.7 0.00 0.00 0.00 84 1017.5
20260902104523 74 197 0.0 1.7 0.00 0.00 0.00 84 1017.4
20260902104012 74 197 0.9 1.7 0.00 0.00 0.00 83 1017.3
20260902103512 74 192 0.9 2.6 0.00 0.00 0.00 83 1017.3
20260902103037 75 210 1.7 2.6 0.00 0.00 0.00 83 1017.3
20260902102516 75 198 1.7 2.6 0.00 0.00 0.00 83 1017.3
20260902102017 75 202 1.7 2.6 0.00 0.00 0.00 83 1017.3
20260902101520 75 201 0.9 1.7 0.00 0.00 0.00 83 1017.3